Location: York
(31.8935°S, 116.7682°E)
Time: 16:33:06
(UTC+08:00)

Vanguard 3 - Visible Passes

Search period start: 25 September 2022 00:00
Search period end: 05 October 2022 00:00
Orbit: 508 x 3258 km, 33.3° (Epoch: 24 September)

Date Brightness Start Highest point End Pass type
(mag) Time Alt. Az. Time Alt. Az. Time Alt. Az.
25 Sep 8.4 03:40:05 27° NE 03:40:05 27° NE 03:42:01 10° NE visible
25 Sep 10.0 19:23:13 10° NNW 19:39:58 36° NNE 19:46:43 27° ENE visible
25 Sep 9.7 21:37:25 10° WNW 21:51:18 54° NW 21:51:18 54° NW visible
25 Sep 11.2 23:55:25 10° W 23:55:52 11° W 23:55:52 11° W visible
26 Sep 8.0 04:34:23 24° NNW 04:34:23 24° NNW 04:37:38 10° NNE visible
26 Sep 9.5 20:19:53 10° NW 20:38:27 55° NNE 20:41:31 50° ENE visible
26 Sep 10.2 22:36:36 10° WNW 22:46:05 38° WNW 22:46:05 38° WNW visible
27 Sep 9.2 03:24:12 14° NE 03:24:12 14° NE 03:24:50 10° NE visible
27 Sep 10.2 19:03:32 10° NNW 19:21:16 42° NNE 19:31:41 21° E visible
27 Sep 9.3 21:18:07 10° WNW 21:36:15 73° N 21:36:15 73° N visible
27 Sep 10.8 23:36:26 10° W 23:40:49 21° W 23:40:49 21° W visible
28 Sep 8.7 04:18:37 17° N 04:18:37 17° N 04:20:06 10° N visible
28 Sep 9.7 20:00:30 10° NW 20:19:48 61° NNE 20:26:22 40° E visible
28 Sep 9.7 22:17:29 10° WNW 22:30:56 55° WNW 22:30:56 55° WNW visible
29 Sep 10.2 18:44:06 10° NNW 19:02:26 47° NNE 19:16:25 13° E visible
29 Sep 9.3 20:58:55 10° WNW 21:18:29 79° NNE 21:20:58 68° E visible
29 Sep 10.3 23:17:25 10° W 23:25:32 33° W 23:25:32 33° W visible
30 Sep 9.8 19:41:17 10° NW 20:01:02 66° NNE 20:10:56 29° E visible
30 Sep 9.4 21:58:23 10° W 22:15:29 76° W 22:15:29 76° W visible
01 Oct 10.9 00:17:22 10° W 00:20:01 16° W 00:20:01 16° W visible
01 Oct 10.2 18:24:53 10° NW 18:43:28 51° NNE 18:59:40 10° ESE visible
01 Oct 9.5 20:39:50 10° WNW 20:59:53 83° NNE 21:05:21 52° E visible
01 Oct 10.0 22:58:23 10° W 23:09:53 46° W 23:09:53 46° W visible
02 Oct 9.9 19:22:15 10° NW 19:42:10 71° NNE 19:55:07 20° ESE visible
02 Oct 9.3 21:39:21 10° W 21:58:51 86° S 21:59:39 83° SE visible
02 Oct 10.6 23:58:21 10° W 00:04:10 25° W 00:04:10 25° W visible
03 Oct 10.3 18:05:53 10° NW 18:24:25 56° NNE 18:41:38 10° ESE visible
03 Oct 9.7 20:20:52 10° WNW 20:41:12 86° NNE 20:49:20 39° E visible
03 Oct 9.7 22:39:20 10° W 22:53:51 60° WSW 22:53:51 60° WSW visible
04 Oct 11.1 00:58:04 10° WSW 00:58:22 11° WSW 00:58:22 11° WSW visible
04 Oct 10.0 19:03:23 10° WNW 19:23:13 75° NNE 19:38:56 14° ESE visible
04 Oct 9.4 21:20:23 10° W 21:40:23 85° S 21:43:26 67° ESE visible
